| time (UTC) | temp F | wind direction | speed MPH | gust MPH | rain 1hr in | rain 24hr in | rain mn in | humidity % | barometer mb |
| 20260906022736 | 74 | 234 | 0.0 | 5.0 | 0.00 | 0.21 | 0.00 | 37 | 1036.9 |
| 20260906022236 | 74 | 258 | 0.0 | 3.0 | 0.00 | 0.21 | 0.00 | 37 | 1036.9 |
| 20260906021736 | 74 | 257 | 0.0 | 0.0 | 0.00 | 0.21 | 0.00 | 37 | 1036.9 |
| 20260906021236 | 74 | 268 | 0.0 | 0.0 | 0.00 | 0.21 | 0.00 | 37 | 1036.9 |
| 20260906020736 | 74 | 262 | 0.0 | 0.0 | 0.00 | 0.21 | 0.00 | 37 | 1036.8 |
| 20260906020236 | 74 | 304 | 0.0 | 2.0 | 0.00 | 0.21 | 0.00 | 37 | 1036.7 |
| 20260906015736 | 74 | 255 | 0.0 | 3.0 | 0.00 | 0.21 | 0.00 | 39 | 1036.8 |
| 20260906015236 | 73 | 260 | 0.0 | 0.0 | 0.00 | 0.21 | 0.00 | 41 | 1036.6 |
| 20260906014733 | 73 | 257 | 0.0 | 0.0 | 0.00 | 0.21 | 0.00 | 43 | 1036.7 |
| 20260906014236 | 73 | 224 | 0.0 | 0.0 | 0.00 | 0.21 | 0.00 | 43 | 1036.6 |
| 20260906013733 | 74 | 225 | 0.0 | 0.0 | 0.00 | 0.21 | 0.00 | 42 | 1036.6 |
| 20260906013233 | 74 | 224 | 0.0 | 0.0 | 0.00 | 0.21 | 0.00 | 43 | 1036.5 |
| 20260906012736 | 75 | 288 | 0.0 | 0.0 | 0.00 | 0.21 | 0.00 | 41 | 1036.5 |
| 20260906012236 | 76 | 288 | 0.0 | 0.0 | 0.00 | 0.21 | 0.00 | 39 | 1036.5 |
| 20260906011736 | 77 | 288 | 0.0 | 0.0 | 0.00 | 0.21 | 0.00 | 37 | 1036.6 |
| 20260906011233 | 77 | 288 | 0.0 | 0.0 | 0.00 | 0.21 | 0.00 | 37 | 1036.5 |
| 20260906010733 | 78 | 288 | 0.0 | 0.0 | 0.00 | 0.21 | 0.00 | 36 | 1036.3 |
| 20260906010236 | 78 | 288 | 0.0 | 0.0 | 0.00 | 0.21 | 0.00 | 35 | 1036.3 |
| 20260906005736 | 78 | 314 | 0.0 | 0.0 | 0.00 | 0.21 | 0.00 | 37 | 1036.4 |
| 20260906005233 | 78 | 313 | 0.0 | 0.0 | 0.00 | 0.21 | 0.00 | 39 | 1036.2 |
| 20260906004733 | 78 | 357 | 0.0 | 0.0 | 0.00 | 0.21 | 0.00 | 39 | 1036.1 |
| 20260906004233 | 78 | 357 | 0.0 | 0.0 | 0.00 | 0.21 | 0.00 | 39 | 1036.1 |
| 20260906003733 | 78 | 335 | 0.0 | 0.0 | 0.00 | 0.21 | 0.00 | 37 | 1036.0 |
| 20260906003236 | 78 | 357 | 0.0 | 0.0 | 0.00 | 0.21 | 0.00 | 36 | 1036.0 |
| 20260906002736 | 78 | 339 | 0.0 | 0.0 | 0.00 | 0.21 | 0.00 | 37 | 1035.9 |
| 20260906002233 | 78 | 339 | 0.0 | 0.0 | 0.00 | 0.21 | 0.00 | 39 | 1035.8 |
| 20260906001733 | 78 | 339 | 0.0 | 0.0 | 0.00 | 0.21 | 0.00 | 38 | 1035.7 |
| 20260906001236 | 78 | 338 | 0.0 | 0.0 | 0.00 | 0.21 | 0.00 | 37 | 1035.6 |
| 20260906000736 | 78 | 38 | 0.0 | 0.0 | 0.00 | 0.21 | 0.00 | 37 | 1035.6 |
| 20260906000236 | 78 | 39 | 0.0 | 0.0 | 0.00 | 0.21 | 0.00 | 37 | 1035.5 |
| 20260905235736 | 78 | 38 | 0.0 | 0.0 | 0.00 | 0.21 | 0.00 | 37 | 1035.5 |
| 20260905235233 | 78 | 67 | 0.0 | 0.0 | 0.00 | 0.21 | 0.00 | 39 | 1035.4 |
| 20260905234733 | 78 | 20 | 0.0 | 0.0 | 0.00 | 0.21 | 0.00 | 39 | 1035.4 |
| 20260905234236 | 78 | 336 | 0.0 | 0.0 | 0.00 | 0.21 | 0.00 | 39 | 1035.3 |
| 20260905233736 | 78 | 335 | 0.0 | 0.0 | 0.00 | 0.21 | 0.00 | 39 | 1035.2 |
| 20260905233233 | 78 | 310 | 0.0 | 0.0 | 0.00 | 0.21 | 0.00 | 39 | 1035.1 |
| 20260905232733 | 78 | 18 | 0.0 | 0.0 | 0.00 | 0.21 | 0.00 | 40 | 1035.2 |
| 20260905232236 | 78 | 23 | 0.0 | 0.0 | 0.00 | 0.21 | 0.00 | 40 | 1035.1 |
| 20260905231736 | 78 | 14 | 0.0 | 0.0 | 0.00 | 0.21 | 0.00 | 40 | 1035.1 |
| 20260905231233 | 79 | 87 | 0.0 | 2.0 | 0.00 | 0.21 | 0.00 | 39 | 1035.0 |
| 20260905230733 | 79 | 70 | 0.0 | 0.0 | 0.00 | 0.21 | 0.00 | 38 | 1035.0 |
| 20260905230236 | 79 | 98 | 0.0 | 0.0 | 0.00 | 0.21 | 0.00 | 42 | 1035.0 |
| 20260905225736 | 79 | 66 | 0.0 | 0.0 | 0.00 | 0.21 | 0.00 | 41 | 1035.0 |
| 20260905225233 | 78 | 79 | 0.0 | 0.0 | 0.00 | 0.21 | 0.00 | 42 | 1034.9 |
| 20260905224733 | 78 | 30 | 0.0 | 0.0 | 0.00 | 0.21 | 0.00 | 42 | 1035.0 |
| 20260905224233 | 77 | 347 | 0.0 | 0.0 | 0.00 | 0.21 | 0.00 | 44 | 1034.9 |
| 20260905223733 | 76 | 18 | 0.0 | 3.0 | 0.00 | 0.21 | 0.00 | 46 | 1035.0 |
| 20260905223233 | 76 | 358 | 0.0 | 5.0 | 0.00 | 0.21 | 0.00 | 47 | 1034.9 |
| 20260905222736 | 76 | 319 | 0.0 | 2.0 | 0.00 | 0.21 | 0.00 | 48 | 1034.8 |
| 20260905222236 | 76 | 35 | 0.0 | 7.0 | 0.00 | 0.21 | 0.00 | 49 | 1034.8 |
| 20260905221736 | 76 | 352 | 0.0 | 0.0 | 0.00 | 0.21 | 0.00 | 50 | 1034.9 |
| 20260905221236 | 76 | 327 | 0.0 | 0.0 | 0.00 | 0.21 | 0.00 | 51 | 1034.9 |
| 20260905220733 | 75 | 304 | 0.0 | 0.0 | 0.00 | 0.21 | 0.00 | 50 | 1034.8 |
| 20260905220236 | 74 | 18 | 0.0 | 7.0 | 0.00 | 0.21 | 0.00 | 51 | 1034.8 |
| 20260905215736 | 74 | 22 | 0.0 | 0.0 | 0.00 | 0.21 | 0.00 | 53 | 1034.9 |
| 20260905215233 | 74 | 14 | 0.0 | 0.0 | 0.00 | 0.21 | 0.00 | 54 | 1034.9 |
| 20260905214733 | 74 | 53 | 0.0 | 0.0 | 0.00 | 0.21 | 0.00 | 57 | 1034.8 |
| 20260905214233 | 73 | 22 | 0.0 | 0.0 | 0.00 | 0.21 | 0.00 | 64 | 1034.8 |
| 20260905213736 | 73 | 33 | 0.0 | 2.0 | 0.00 | 0.21 | 0.00 | 61 | 1034.9 |
| 20260905213233 | 72 | 33 | 0.0 | 3.0 | 0.02 | 0.21 | 0.00 | 60 | 1034.9 |
| 20260905212733 | 72 | 76 | 0.0 | 0.0 | 0.07 | 0.21 | 0.00 | 64 | 1034.9 |
| 20260905212236 | 71 | 18 | 0.0 | 0.0 | 0.12 | 0.21 | 0.00 | 59 | 1034.9 |
| 20260905211736 | 70 | 356 | 0.0 | 0.0 | 0.18 | 0.21 | 0.00 | 63 | 1034.9 |
| 20260905211233 | 69 | 15 | 0.0 | 0.0 | 0.21 | 0.21 | 0.00 | 69 | 1034.9 |
| 20260905210733 | 68 | 304 | 0.0 | 0.0 | 0.21 | 0.21 | 0.00 | 68 | 1035.0 |
| 20260905210236 | 67 | 319 | 0.0 | 0.0 | 0.21 | 0.21 | 0.00 | 69 | 1034.9 |
| 20260905205733 | 67 | 296 | 0.0 | 0.0 | 0.21 | 0.21 | 0.00 | 72 | 1035.0 |
| 20260905205233 | 66 | 284 | 0.0 | 0.0 | 0.21 | 0.21 | 0.00 | 72 | 1035.0 |
| 20260905204733 | 66 | 340 | 0.0 | 0.0 | 0.21 | 0.21 | 0.00 | 70 | 1035.0 |
| 20260905204233 | 66 | 62 | 0.0 | 0.0 | 0.21 | 0.21 | 0.00 | 73 | 1034.9 |
| 20260905203733 | 66 | 80 | 0.0 | 0.0 | 0.21 | 0.21 | 0.00 | 68 | 1034.9 |
| 20260905203236 | 65 | 21 | 0.0 | 1.0 | 0.19 | 0.19 | 0.00 | 71 | 1035.1 |
| 20260905202736 | 66 | 234 | 0.0 | 0.0 | 0.14 | 0.14 | 0.00 | 72 | 1035.4 |
| 20260905202236 | 68 | 256 | 0.0 | 12.0 | 0.09 | 0.09 | 0.00 | 64 | 1035.5 |
| 20260905201733 | 73 | 166 | 0.0 | 13.0 | 0.04 | 0.04 | 0.00 | 54 | 1035.3 |
| 20260905201236 | 76 | 278 | 0.0 | 0.0 | 0.01 | 0.01 | 0.00 | 50 | 1035.2 |
| 20260905200733 | 79 | 215 | 0.0 | 0.0 | 0.00 | 0.00 | 0.00 | 47 | 1035.2 |
| 20260905200233 | 79 | 261 | 0.0 | 0.0 | 0.00 | 0.00 | 0.00 | 39 | 1035.0 |
| 20260905195736 | 80 | 254 | 0.0 | 0.0 | 0.00 | 0.00 | 0.00 | 38 | 1035.0 |
| 20260905195236 | 80 | 139 | 0.0 | 0.0 | 0.00 | 0.00 | 0.00 | 37 | 1034.9 |
| 20260905194733 | 81 | 259 | 0.0 | 0.0 | 0.00 | 0.00 | 0.00 | 37 | 1034.9 |
| 20260905194236 | 81 | 18 | 0.0 | 0.0 | 0.00 | 0.00 | 0.00 | 37 | 1034.8 |
| 20260905193733 | 80 | 243 | 0.0 | 0.0 | 0.00 | 0.00 | 0.00 | 38 | 1034.9 |
| 20260905193233 | 80 | 168 | 0.0 | 0.0 | 0.00 | 0.00 | 0.00 | 39 | 1034.9 |
| 20260905192736 | 80 | 218 | 0.0 | 0.0 | 0.00 | 0.00 | 0.00 | 39 | 1034.9 |
| 20260905192233 | 80 | 240 | 0.0 | 0.0 | 0.00 | 0.00 | 0.00 | 38 | 1034.8 |
| 20260905191733 | 81 | 212 | 0.0 | 0.0 | 0.00 | 0.00 | 0.00 | 37 | 1034.9 |
| 20260905191236 | 81 | 153 | 0.0 | 0.0 | 0.00 | 0.00 | 0.00 | 36 | 1034.9 |
| 20260905190736 | 82 | 276 | 0.0 | 0.0 | 0.00 | 0.00 | 0.00 | 35 | 1034.9 |
| 20260905190236 | 83 | 238 | 0.0 | 6.0 | 0.00 | 0.00 | 0.00 | 35 | 1035.0 |
| 20260905185736 | 81 | 155 | 1.0 | 1.0 | 0.00 | 0.00 | 0.00 | 38 | 1034.9 |
| 20260905185233 | 81 | 107 | 0.0 | 3.0 | 0.00 | 0.00 | 0.00 | 37 | 1034.9 |
| 20260905184736 | 81 | 152 | 0.0 | 5.0 | 0.00 | 0.00 | 0.00 | 37 | 1035.0 |
| 20260905184236 | 82 | 140 | 0.0 | 9.0 | 0.00 | 0.00 | 0.00 | 36 | 1034.9 |
| 20260905183736 | 82 | 168 | 0.0 | 0.0 | 0.00 | 0.00 | 0.00 | 36 | 1034.9 |
| 20260905183233 | 81 | 181 | 0.0 | 0.0 | 0.00 | 0.00 | 0.00 | 39 | 1034.9 |
| 20260905182733 | 80 | 253 | 0.0 | 0.0 | 0.00 | 0.00 | 0.00 | 39 | 1034.9 |
| 20260905182233 | 80 | 256 | 0.0 | 0.0 | 0.00 | 0.00 | 0.00 | 38 | 1035.0 |
| 20260905181736 | 81 | 107 | 0.0 | 3.0 | 0.00 | 0.00 | 0.00 | 38 | 1034.9 |
| 20260905181236 | 80 | 152 | 0.0 | 6.0 | 0.00 | 0.00 | 0.00 | 39 | 1034.9 |
| 20260905180733 | 79 | 15 | 0.0 | 4.0 | 0.00 | 0.00 | 0.00 | 39 | 1035.0 |
| 20260905180236 | 80 | 73 | 0.0 | 0.0 | 0.00 | 0.00 | 0.00 | 38 | 1035.0 |
| 20260905175736 | 79 | 143 | 0.0 | 0.0 | 0.00 | 0.00 | 0.00 | 41 | 1035.1 |
| 20260905175233 | 78 | 215 | 0.0 | 5.0 | 0.00 | 0.00 | 0.00 | 42 | 1035.0 |
| 20260905174736 | 77 | 98 | 5.0 | 10.0 | 0.00 | 0.00 | 0.00 | 42 | 1034.8 |
| 20260905174236 | 78 | 110 | 0.0 | 8.0 | 0.00 | 0.00 | 0.00 | 42 | 1034.9 |
| 20260905173736 | 78 | 136 | 0.0 | 6.0 | 0.00 | 0.00 | 0.00 | 42 | 1034.9 |
| 20260905173233 | 79 | 86 | 0.0 | 9.0 | 0.00 | 0.00 | 0.00 | 41 | 1034.8 |
| 20260905172733 | 80 | 94 | 0.0 | 0.0 | 0.00 | 0.00 | 0.00 | 39 | 1034.9 |
| 20260905172236 | 80 | 173 | 0.0 | 0.0 | 0.00 | 0.00 | 0.00 | 40 | 1034.7 |
| 20260905171733 | 80 | 162 | 0.0 | 0.0 | 0.00 | 0.00 | 0.00 | 39 | 1034.7 |
| 20260905171233 | 79 | 108 | 0.0 | 0.0 | 0.00 | 0.00 | 0.00 | 42 | 1034.6 |
| 20260905170736 | 78 | 84 | 0.0 | 0.0 | 0.00 | 0.00 | 0.00 | 41 | 1034.6 |
| 20260905170236 | 78 | 118 | 0.0 | 0.0 | 0.00 | 0.00 | 0.00 | 41 | 1034.5 |
| 20260905165736 | 79 | 163 | 0.0 | 0.0 | 0.00 | 0.00 | 0.00 | 39 | 1034.5 |
| 20260905165233 | 79 | 271 | 0.0 | 0.0 | 0.00 | 0.00 | 0.00 | 39 | 1034.5 |
| 20260905164736 | 79 | 191 | 0.0 | 0.0 | 0.00 | 0.00 | 0.00 | 41 | 1034.5 |
| 20260905164233 | 79 | 120 | 0.0 | 0.0 | 0.00 | 0.00 | 0.00 | 39 | 1034.4 |
| 20260905163733 | 78 | 257 | 0.0 | 0.0 | 0.00 | 0.00 | 0.00 | 40 | 1034.3 |
| 20260905163236 | 78 | 255 | 0.0 | 0.0 | 0.00 | 0.00 | 0.00 | 42 | 1034.3 |
| 20260905162736 | 78 | 305 | 0.0 | 0.0 | 0.00 | 0.00 | 0.00 | 41 | 1034.2 |
| 20260905162233 | 78 | 150 | 0.0 | 0.0 | 0.00 | 0.00 | 0.00 | 44 | 1034.1 |
| 20260905161733 | 77 | 150 | 0.0 | 0.0 | 0.00 | 0.00 | 0.00 | 45 | 1034.2 |
| 20260905161236 | 75 | 156 | 0.0 | 0.0 | 0.00 | 0.00 | 0.00 | 47 | 1034.1 |
| 20260905160736 | 74 | 139 | 0.0 | 0.0 | 0.00 | 0.00 | 0.00 | 48 | 1034.1 |
| 20260905160236 | 73 | 75 | 0.0 | 0.0 | 0.00 | 0.00 | 0.00 | 49 | 1034.1 |
| 20260905155736 | 74 | 110 | 0.0 | 0.0 | 0.00 | 0.00 | 0.00 | 47 | 1034.1 |
| 20260905155236 | 75 | 172 | 0.0 | 0.0 | 0.00 | 0.00 | 0.00 | 48 | 1034.0 |
| 20260905154733 | 74 | 172 | 0.0 | 0.0 | 0.00 | 0.00 | 0.00 | 50 | 1034.0 |
| 20260905154236 | 73 | 172 | 0.0 | 0.0 | 0.00 | 0.00 | 0.00 | 52 | 1034.0 |
| 20260905153733 | 72 | 122 | 0.0 | 0.0 | 0.00 | 0.00 | 0.00 | 54 | 1034.0 |
| 20260905153233 | 71 | 122 | 0.0 | 0.0 | 0.00 | 0.00 | 0.00 | 55 | 1034.0 |
| 20260905152736 | 70 | 90 | 0.0 | 0.0 | 0.00 | 0.00 | 0.00 | 56 | 1034.0 |
| 20260905152233 | 70 | 68 | 0.0 | 0.0 | 0.00 | 0.00 | 0.00 | 56 | 1034.1 |
| 20260905151733 | 69 | 103 | 0.0 | 0.0 | 0.00 | 0.00 | 0.00 | 57 | 1034.1 |
| 20260905151236 | 70 | 56 | 0.0 | 0.0 | 0.00 | 0.00 | 0.00 | 55 | 1034.1 |
| 20260905150733 | 70 | 101 | 0.0 | 0.0 | 0.00 | 0.00 | 0.00 | 56 | 1033.9 |
| 20260905150233 | 69 | 139 | 0.0 | 0.0 | 0.00 | 0.00 | 0.00 | 57 | 1033.9 |
| 20260905145736 | 69 | 101 | 0.0 | 0.0 | 0.00 | 0.00 | 0.00 | 57 | 1033.9 |
| 20260905145236 | 70 | 55 | 0.0 | 0.0 | 0.00 | 0.00 | 0.00 | 55 | 1033.8 |
| 20260905144736 | 69 | 102 | 0.0 | 0.0 | 0.00 | 0.00 | 0.00 | 56 | 1033.9 |
| 20260905144233 | 69 | 25 | 0.0 | 0.0 | 0.00 | 0.00 | 0.00 | 56 | 1033.9 |
| 20260905143733 | 69 | 78 | 0.0 | 0.0 | 0.00 | 0.00 | 0.00 | 56 | 1033.8 |
| 20260905143236 | 69 | 101 | 0.0 | 0.0 | 0.00 | 0.00 | 0.00 | 56 | 1033.7 |
| 20260905142733 | 69 | 32 | 0.0 | 0.0 | 0.00 | 0.00 | 0.00 | 56 | 1033.8 |
| 20260905142233 | 68 | 95 | 0.0 | 0.0 | 0.00 | 0.00 | 0.00 | 58 | 1033.8 |
| 20260905141736 | 68 | 18 | 0.0 | 0.0 | 0.00 | 0.00 | 0.00 | 57 | 1033.8 |
| 20260905141236 | 67 | 18 | 0.0 | 0.0 | 0.00 | 0.00 | 0.00 | 60 | 1033.7 |
| 20260905140736 | 67 | 18 | 0.0 | 0.0 | 0.00 | 0.00 | 0.00 | 60 | 1033.7 |
| 20260905140233 | 67 | 18 | 0.0 | 0.0 | 0.00 | 0.00 | 0.00 | 59 | 1033.6 |
| 20260905135733 | 67 | 73 | 0.0 | 0.0 | 0.00 | 0.00 | 0.00 | 59 | 1033.6 |
| 20260905135236 | 66 | 112 | 0.0 | 0.0 | 0.00 | 0.00 | 0.00 | 60 | 1033.5 |
| 20260905134733 | 66 | 74 | 0.0 | 0.0 | 0.00 | 0.00 | 0.00 | 60 | 1033.5 |
| 20260905134233 | 67 | 73 | 0.0 | 0.0 | 0.00 | 0.00 | 0.00 | 58 | 1033.5 |
| 20260905133736 | 67 | 68 | 0.0 | 0.0 | 0.00 | 0.00 | 0.00 | 59 | 1033.5 |
| 20260905133233 | 67 | 266 | 0.0 | 0.0 | 0.00 | 0.00 | 0.00 | 60 | 1033.4 |
| 20260905132733 | 66 | 267 | 0.0 | 0.0 | 0.00 | 0.00 | 0.00 | 60 | 1033.4 |
| 20260905132236 | 66 | 266 | 0.0 | 0.0 | 0.00 | 0.00 | 0.00 | 61 | 1033.4 |
| 20260905131733 | 65 | 266 | 0.0 | 0.0 | 0.00 | 0.00 | 0.00 | 63 | 1033.3 |
| 20260905131236 | 63 | 267 | 0.0 | 0.0 | 0.00 | 0.00 | 0.00 | 66 | 1033.2 |
| 20260905130736 | 62 | 266 | 0.0 | 0.0 | 0.00 | 0.00 | 0.00 | 68 | 1033.1 |
| 20260905130233 | 62 | 267 | 0.0 | 0.0 | 0.00 | 0.00 | 0.00 | 68 | 1033.2 |
| 20260905125736 | 61 | 266 | 0.0 | 0.0 | 0.00 | 0.00 | 0.00 | 69 | 1033.1 |
| 20260905125236 | 62 | 266 | 0.0 | 0.0 | 0.00 | 0.00 | 0.00 | 68 | 1033.2 |
| 20260905124733 | 61 | 267 | 0.0 | 0.0 | 0.00 | 0.00 | 0.00 | 69 | 1033.1 |
| 20260905124233 | 61 | 267 | 0.0 | 0.0 | 0.00 | 0.00 | 0.00 | 70 | 1033.2 |
| 20260905123733 | 61 | 267 | 0.0 | 0.0 | 0.00 | 0.00 | 0.00 | 70 | 1033.1 |
| 20260905123233 | 61 | 266 | 0.0 | 0.0 | 0.00 | 0.00 | 0.00 | 69 | 1033.2 |
| 20260905122733 | 61 | 266 | 0.0 | 0.0 | 0.00 | 0.00 | 0.00 | 69 | 1033.2 |
| 20260905122233 | 61 | 266 | 0.0 | 0.0 | 0.00 | 0.00 | 0.00 | 70 | 1033.2 |
| 20260905121733 | 60 | 267 | 0.0 | 0.0 | 0.00 | 0.00 | 0.00 | 71 | 1033.2 |
| 20260905121236 | 60 | 267 | 0.0 | 0.0 | 0.00 | 0.00 | 0.00 | 71 | 1033.3 |
| 20260905120733 | 60 | 267 | 0.0 | 0.0 | 0.00 | 0.00 | 0.00 | 72 | 1033.3 |
| 20260905120236 | 61 | 266 | 0.0 | 0.0 | 0.00 | 0.00 | 0.00 | 71 | 1033.3 |
| 20260905115733 | 62 | 266 | 0.0 | 0.0 | 0.00 | 0.00 | 0.00 | 69 | 1033.3 |
| 20260905115233 | 62 | 266 | 0.0 | 0.0 | 0.00 | 0.00 | 0.00 | 68 | 1033.4 |
| 20260905114736 | 62 | 266 | 0.0 | 0.0 | 0.00 | 0.00 | 0.00 | 69 | 1033.3 |
| 20260905114236 | 61 | 266 | 0.0 | 0.0 | 0.00 | 0.00 | 0.00 | 70 | 1033.4 |
| 20260905113733 | 61 | 267 | 0.0 | 0.0 | 0.00 | 0.00 | 0.00 | 70 | 1033.4 |
| 20260905113233 | 62 | 266 | 0.0 | 0.0 | 0.00 | 0.00 | 0.00 | 69 | 1033.6 |
| 20260905112736 | 62 | 266 | 0.0 | 0.0 | 0.00 | 0.00 | 0.00 | 68 | 1033.6 |
| 20260905112236 | 63 | 267 | 0.0 | 0.0 | 0.00 | 0.00 | 0.00 | 68 | 1033.7 |
| 20260905111736 | 63 | 267 | 0.0 | 0.0 | 0.00 | 0.00 | 0.00 | 67 | 1033.8 |
| 20260905111233 | 63 | 266 | 0.0 | 0.0 | 0.00 | 0.00 | 0.00 | 68 | 1033.9 |
| 20260905110736 | 63 | 266 | 0.0 | 0.0 | 0.00 | 0.00 | 0.00 | 68 | 1033.9 |
| 20260905110236 | 63 | 267 | 0.0 | 0.0 | 0.00 | 0.00 | 0.00 | 68 | 1033.8 |
| 20260905105736 | 63 | 266 | 0.0 | 0.0 | 0.00 | 0.00 | 0.00 | 68 | 1033.9 |
| 20260905105236 | 63 | 266 | 0.0 | 0.0 | 0.00 | 0.00 | 0.00 | 68 | 1033.9 |
| 20260905104736 | 63 | 267 | 0.0 | 0.0 | 0.00 | 0.00 | 0.00 | 68 | 1034.0 |
| 20260905104236 | 62 | 266 | 0.0 | 0.0 | 0.00 | 0.00 | 0.00 | 68 | 1034.0 |
| 20260905103733 | 63 | 266 | 0.0 | 0.0 | 0.00 | 0.00 | 0.00 | 69 | 1034.1 |
| 20260905103236 | 63 | 267 | 0.0 | 0.0 | 0.00 | 0.00 | 0.00 | 68 | 1034.1 |
| 20260905102733 | 63 | 266 | 0.0 | 0.0 | 0.00 | 0.00 | 0.00 | 68 | 1034.2 |
| 20260905102233 | 63 | 267 | 0.0 | 0.0 | 0.00 | 0.00 | 0.00 | 68 | 1034.3 |
| 20260905101736 | 63 | 266 | 0.0 | 0.0 | 0.00 | 0.00 | 0.00 | 69 | 1034.3 |
| 20260905101233 | 63 | 267 | 0.0 | 0.0 | 0.00 | 0.00 | 0.00 | 68 | 1034.4 |
| 20260905100736 | 62 | 266 | 0.0 | 0.0 | 0.00 | 0.00 | 0.00 | 68 | 1034.3 |
| 20260905100236 | 62 | 266 | 0.0 | 0.0 | 0.00 | 0.00 | 0.00 | 69 | 1034.4 |
| 20260905095736 | 63 | 266 | 0.0 | 0.0 | 0.00 | 0.00 | 0.00 | 68 | 1034.4 |
| 20260905095236 | 63 | 267 | 0.0 | 0.0 | 0.00 | 0.00 | 0.00 | 68 | 1034.5 |
| 20260905094733 | 63 | 266 | 0.0 | 0.0 | 0.00 | 0.00 | 0.00 | 68 | 1034.5 |
| 20260905094233 | 63 | 267 | 0.0 | 0.0 | 0.00 | 0.00 | 0.00 | 69 | 1034.5 |
| 20260905093733 | 63 | 266 | 0.0 | 0.0 | 0.00 | 0.00 | 0.00 | 69 | 1034.6 |
| 20260905093236 | 63 | 266 | 0.0 | 0.0 | 0.00 | 0.00 | 0.00 | 69 | 1034.7 |
| 20260905092736 | 63 | 266 | 0.0 | 0.0 | 0.00 | 0.00 | 0.00 | 69 | 1034.8 |
| 20260905092236 | 62 | 266 | 0.0 | 0.0 | 0.00 | 0.00 | 0.00 | 70 | 1034.8 |
| 20260905091733 | 61 | 266 | 0.0 | 0.0 | 0.00 | 0.00 | 0.00 | 72 | 1034.9 |
| 20260905091233 | 60 | 266 | 0.0 | 0.0 | 0.00 | 0.00 | 0.00 | 73 | 1035.0 |
| 20260905090736 | 60 | 266 | 0.0 | 0.0 | 0.00 | 0.00 | 0.00 | 73 | 1035.0 |
| 20260905090236 | 60 | 267 | 0.0 | 0.0 | 0.00 | 0.00 | 0.00 | 73 | 1035.0 |
| 20260905085736 | 60 | 266 | 0.0 | 0.0 | 0.00 | 0.00 | 0.00 | 73 | 1035.1 |
| 20260905085233 | 60 | 266 | 0.0 | 0.0 | 0.00 | 0.00 | 0.00 | 73 | 1035.1 |
| 20260905084733 | 60 | 267 | 0.0 | 0.0 | 0.00 | 0.00 | 0.00 | 73 | 1035.2 |
| 20260905084233 | 60 | 266 | 0.0 | 0.0 | 0.00 | 0.00 | 0.00 | 73 | 1035.2 |
| 20260905083736 | 60 | 266 | 0.0 | 0.0 | 0.00 | 0.00 | 0.00 | 72 | 1035.3 |
| 20260905083233 | 61 | 266 | 0.0 | 0.0 | 0.00 | 0.00 | 0.00 | 71 | 1035.5 |
| 20260905082733 | 61 | 266 | 0.0 | 0.0 | 0.00 | 0.00 | 0.00 | 71 | 1035.6 |
| 20260905082236 | 62 | 267 | 0.0 | 0.0 | 0.00 | 0.00 | 0.00 | 70 | 1035.7 |
| 20260905081736 | 62 | 266 | 0.0 | 0.0 | 0.00 | 0.00 | 0.00 | 69 | 1035.7 |
| 20260905081236 | 63 | 267 | 0.0 | 0.0 | 0.00 | 0.00 | 0.00 | 69 | 1035.8 |
| 20260905080736 | 63 | 266 | 0.0 | 0.0 | 0.00 | 0.00 | 0.00 | 68 | 1035.8 |
| 20260905080233 | 63 | 266 | 0.0 | 0.0 | 0.00 | 0.00 | 0.00 | 68 | 1035.8 |
| 20260905075733 | 63 | 266 | 0.0 | 0.0 | 0.00 | 0.00 | 0.00 | 68 | 1035.8 |
| 20260905075236 | 63 | 266 | 0.0 | 0.0 | 0.00 | 0.00 | 0.00 | 67 | 1036.1 |
| 20260905074733 | 63 | 266 | 0.0 | 0.0 | 0.00 | 0.00 | 0.00 | 66 | 1036.1 |
| 20260905074236 | 64 | 266 | 0.0 | 0.0 | 0.00 | 0.00 | 0.00 | 66 | 1036.2 |
| 20260905073733 | 64 | 267 | 0.0 | 0.0 | 0.00 | 0.00 | 0.00 | 66 | 1036.2 |
| 20260905073236 | 64 | 266 | 0.0 | 0.0 | 0.00 | 0.00 | 0.00 | 66 | 1036.3 |
| 20260905072736 | 64 | 267 | 0.0 | 0.0 | 0.00 | 0.00 | 0.00 | 65 | 1036.3 |
| 20260905072233 | 64 | 266 | 0.0 | 0.0 | 0.00 | 0.00 | 0.00 | 65 | 1036.2 |
| 20260905071733 | 64 | 267 | 0.0 | 0.0 | 0.00 | 0.00 | 0.00 | 64 | 1036.3 |
| 20260905071233 | 64 | 266 | 0.0 | 0.0 | 0.00 | 0.00 | 0.00 | 65 | 1036.4 |
| 20260905070736 | 64 | 266 | 0.0 | 0.0 | 0.00 | 0.00 | 0.00 | 67 | 1036.4 |
| 20260905070233 | 64 | 266 | 0.0 | 0.0 | 0.00 | 0.00 | 0.00 | 68 | 1036.5 |
| 20260905065736 | 63 | 266 | 0.0 | 0.0 | 0.00 | 0.00 | 0.00 | 70 | 1036.4 |
| 20260905065236 | 63 | 266 | 0.0 | 0.0 | 0.00 | 0.00 | 0.00 | 70 | 1036.5 |
| 20260905064733 | 63 | 266 | 0.0 | 0.0 | 0.00 | 0.00 | 0.00 | 70 | 1036.5 |
| 20260905064236 | 62 | 266 | 0.0 | 0.0 | 0.00 | 0.00 | 0.00 | 70 | 1036.7 |
| 20260905063736 | 62 | 267 | 0.0 | 0.0 | 0.00 | 0.00 | 0.00 | 70 | 1036.8 |
| 20260905063233 | 62 | 267 | 0.0 | 0.0 | 0.00 | 0.00 | 0.00 | 69 | 1036.7 |
| 20260905062733 | 62 | 267 | 0.0 | 0.0 | 0.00 | 0.00 | 0.00 | 69 | 1036.8 |
| 20260905062236 | 62 | 266 | 0.0 | 0.0 | 0.00 | 0.00 | 0.00 | 71 | 1036.9 |
| 20260905061733 | 62 | 266 | 0.0 | 0.0 | 0.00 | 0.00 | 0.00 | 72 | 1037.0 |
| 20260905061233 | 62 | 267 | 0.0 | 0.0 | 0.00 | 0.00 | 0.00 | 72 | 1036.9 |
| 20260905060736 | 62 | 266 | 0.0 | 0.0 | 0.00 | 0.00 | 0.00 | 72 | 1036.9 |
| 20260905060233 | 62 | 266 | 0.0 | 0.0 | 0.00 | 0.00 | 0.00 | 72 | 1037.0 |
| 20260905055736 | 63 | 267 | 0.0 | 0.0 | 0.00 | 0.00 | 0.00 | 72 | 1037.1 |
| 20260905055233 | 63 | 266 | 0.0 | 0.0 | 0.00 | 0.00 | 0.00 | 72 | 1037.0 |
| 20260905054736 | 63 | 266 | 0.0 | 0.0 | 0.00 | 0.00 | 0.00 | 72 | 1037.0 |
| 20260905054233 | 63 | 311 | 0.0 | 0.0 | 0.00 | 0.00 | 0.00 | 73 | 1037.0 |
| 20260905053733 | 63 | 310 | 0.0 | 0.0 | 0.00 | 0.00 | 0.00 | 74 | 1037.1 |
| 20260905053233 | 63 | 322 | 0.0 | 0.0 | 0.00 | 0.00 | 0.00 | 73 | 1037.2 |
| 20260905052736 | 63 | 322 | 0.0 | 0.0 | 0.00 | 0.00 | 0.00 | 72 | 1037.3 |
| 20260905052233 | 63 | 321 | 0.0 | 0.0 | 0.00 | 0.00 | 0.00 | 72 | 1037.5 |
| 20260905051733 | 63 | 322 | 0.0 | 0.0 | 0.00 | 0.00 | 0.00 | 73 | 1037.6 |
| 20260905051233 | 63 | 322 | 0.0 | 0.0 | 0.00 | 0.00 | 0.00 | 73 | 1037.6 |
| 20260905050733 | 63 | 321 | 0.0 | 0.0 | 0.00 | 0.00 | 0.00 | 73 | 1037.7 |
| 20260905050236 | 63 | 322 | 0.0 | 0.0 | 0.00 | 0.00 | 0.00 | 73 | 1037.8 |
| 20260905045736 | 63 | 321 | 0.0 | 0.0 | 0.00 | 0.00 | 0.00 | 73 | 1037.9 |
| 20260905045236 | 63 | 321 | 0.0 | 0.0 | 0.00 | 0.00 | 0.00 | 72 | 1037.9 |
| 20260905044736 | 63 | 321 | 0.0 | 0.0 | 0.00 | 0.00 | 0.00 | 71 | 1038.0 |
| 20260905044236 | 63 | 322 | 0.0 | 0.0 | 0.00 | 0.00 | 0.00 | 70 | 1038.2 |
| 20260905043736 | 64 | 321 | 0.0 | 0.0 | 0.00 | 0.00 | 0.00 | 71 | 1038.2 |
| 20260905043233 | 64 | 321 | 0.0 | 0.0 | 0.00 | 0.00 | 0.00 | 71 | 1038.3 |
| 20260905042733 | 64 | 322 | 0.0 | 0.0 | 0.00 | 0.00 | 0.00 | 71 | 1038.4 |
| 20260905042233 | 64 | 322 | 0.0 | 0.0 | 0.00 | 0.00 | 0.00 | 71 | 1038.5 |
| 20260905041733 | 64 | 322 | 0.0 | 0.0 | 0.00 | 0.00 | 0.00 | 69 | 1038.6 |
| 20260905041233 | 65 | 321 | 0.0 | 0.0 | 0.00 | 0.00 | 0.00 | 69 | 1038.6 |
| 20260905040736 | 65 | 322 | 0.0 | 0.0 | 0.00 | 0.00 | 0.00 | 69 | 1038.6 |
| 20260905040233 | 65 | 322 | 0.0 | 0.0 | 0.00 | 0.00 | 0.00 | 69 | 1038.7 |
| 20260905035733 | 66 | 322 | 0.0 | 0.0 | 0.00 | 0.00 | 0.00 | 67 | 1038.7 |
| 20260905035236 | 66 | 322 | 0.0 | 0.0 | 0.00 | 0.00 | 0.00 | 67 | 1038.8 |
| 20260905034733 | 66 | 322 | 0.0 | 0.0 | 0.00 | 0.00 | 0.00 | 67 | 1038.7 |
| 20260905034236 | 66 | 322 | 0.0 | 0.0 | 0.00 | 0.00 | 0.00 | 67 | 1038.8 |
| 20260905033736 | 66 | 322 | 0.0 | 0.0 | 0.00 | 0.00 | 0.00 | 67 | 1038.8 |
| 20260905033233 | 66 | 321 | 0.0 | 0.0 | 0.00 | 0.00 | 0.00 | 66 | 1038.8 |
| 20260905032736 | 66 | 322 | 0.0 | 0.0 | 0.00 | 0.00 | 0.00 | 66 | 1038.7 |
| 20260905032233 | 66 | 322 | 0.0 | 0.0 | 0.00 | 0.00 | 0.00 | 66 | 1038.8 |
| 20260905031733 | 67 | 322 | 0.0 | 0.0 | 0.00 | 0.00 | 0.00 | 65 | 1038.8 |
| 20260905031236 | 67 | 322 | 0.0 | 0.0 | 0.00 | 0.00 | 0.00 | 66 | 1038.8 |
| 20260905030736 | 67 | 321 | 0.0 | 0.0 | 0.00 | 0.00 | 0.00 | 66 | 1038.7 |
| 20260905030233 | 67 | 322 | 0.0 | 0.0 | 0.00 | 0.00 | 0.00 | 65 | 1038.6 |
| 20260905025733 | 67 | 321 | 0.0 | 0.0 | 0.00 | 0.00 | 0.00 | 65 | 1038.6 |
| 20260905025236 | 67 | 321 | 0.0 | 0.0 | 0.00 | 0.00 | 0.00 | 65 | 1038.6 |
| 20260905024736 | 67 | 322 | 0.0 | 0.0 | 0.00 | 0.00 | 0.00 | 65 | 1038.6 |
| 20260905024236 | 67 | 93 | 0.0 | 0.0 | 0.00 | 0.00 | 0.00 | 64 | 1038.5 |
| 20260905023733 | 67 | 94 | 0.0 | 0.0 | 0.00 | 0.00 | 0.00 | 64 | 1038.3 |
| 20260905023236 | 68 | 93 | 0.0 | 0.0 | 0.00 | 0.00 | 0.00 | 63 | 1038.3 |